Location: Long Barn
(38.0930°N, 120.1344°W)
Time: 23:02:32
(UTC+00:00)

ACS3 Solar Sail - Visible Passes

Search period start: 07 October 2024 00:00
Search period end: 17 October 2024 00:00
Orbit: 962 x 1035 km, 97.4° (Epoch: 07 October)

Date Brightness Start Highest point End Pass type
(mag) Time Alt. Az. Time Alt. Az. Time Alt. Az.
07 Oct 2.0 03:35:04 51° E 03:35:42 53° ENE 03:41:51 10° N visible
07 Oct 3.8 05:20:13 23° W 05:20:13 23° W 05:24:47 10° NW visible
08 Oct 3.4 02:22:05 13° E 02:24:15 15° ENE 02:27:34 10° NNE visible
08 Oct 1.8 04:07:15 86° WSW 04:07:18 87° WSW 04:13:42 10° NNW visible
08 Oct 4.5 05:52:24 11° W 05:52:24 11° W 05:53:56 10° WNW visible
09 Oct 2.8 02:54:15 25° E 02:55:28 27° ENE 03:00:36 10° NNE visible
09 Oct 2.7 04:39:25 47° W 04:39:25 47° W 04:45:10 10° NNW visible
10 Oct 2.1 03:26:25 46° E 03:26:51 47° ENE 03:32:52 10° N visible
10 Oct 3.7 05:11:34 26° W 05:11:34 26° W 05:16:06 10° NW visible
11 Oct 3.5 02:13:23 11° E 02:15:25 13° ENE 02:18:06 10° NE visible
11 Oct 1.7 03:58:32 83° NE 03:58:32 83° NE 04:04:44 10° N visible
11 Oct 4.4 05:43:42 13° W 05:43:42 13° W 05:45:50 10° WNW visible
12 Oct 2.9 02:45:31 23° E 02:46:33 24° ENE 02:51:24 10° NNE visible
12 Oct 2.5 04:30:40 52° WNW 04:30:40 52° WNW 04:36:13 10° NNW visible
13 Oct 2.2 03:17:38 42° ENE 03:17:52 42° ENE 03:23:43 10° N visible
13 Oct 3.5 05:02:46 28° WNW 05:02:46 28° WNW 05:07:14 10° NW visible
14 Oct 3.6 02:04:42 10° ENE 02:06:28 11° ENE 02:08:13 10° NE visible
14 Oct 1.8 03:49:43 73° NE 03:49:43 73° NE 03:55:37 10° N visible
14 Oct 4.3 05:34:52 15° WNW 05:34:52 15° WNW 05:37:19 10° NW visible
15 Oct 3.0 02:36:39 20° ENE 02:37:32 21° ENE 02:42:02 10° NNE visible
15 Oct 2.4 04:21:47 56° WNW 04:21:47 56° WNW 04:27:08 10° NNW visible
16 Oct 2.3 03:08:42 37° ENE 03:08:45 37° ENE 03:14:26 10° N visible
16 Oct 3.4 04:53:51 31° WNW 04:53:51 31° WNW 04:58:13 10° NNW visible
